Wind_Speed
20 20 21 21 22 23 22 23 24 25 24 24 24 23 23 23 22 21 21 21 21 21 21 20 20 20 20 20 20 19 19 19 18 17 17 17 17 17 16 16 16 16 16
22 22 22 23 23 24 24 24 25 24 24 25 25 25 25 25 24 23 23 23 23 22 22 21 22 22 21 21 21 20 20 19 19 19 19 19 19 19 19 18 18 18 18
22 23 23 24 25 25 25 25 25 25 25 26 27 26 26 26 25 25 25 25 24 24 24 23 22 23 22 22 23 22 21 21 21 21 21 21 21 21 21 21 21 21 21
23 24 24 24 25 25 26 26 26 26 27 27 28 28 27 26 26 26 26 25 25 24 24 25 24 24 24 24 23 23 23 23 23 23 22 22 22 23 23 23 23 23 23
23 24 23 24 25 26 26 27 27 27 27 28 28 29 29 29 28 27 27 26 25 25 26 26 26 25 25 25 25 25 25 24 24 24 24 24 24 24 24 25 25 25 26
23 24 24 24 25 26 27 28 28 28 29 29 29 29 30 30 30 29 28 28 27 27 27 27 27 27 26 26 26 27 26 26 26 27 26 26 26 26 26 26 27 27 28
24 25 26 26 26 27 28 28 29 29 29 30 30 30 30 31 31 31 30 29 29 29 28 28 29 29 28 27 27 27 28 28 28 28 28 28 28 29 29 29 29 30 30
25 26 27 27 28 28 29 29 30 30 30 31 31 31 31 32 32 32 31 31 30 29 29 29 29 30 30 29 28 28 29 30 32 31 30 30 30 30 31 31 31 31 31
26 26 27 28 28 29 29 30 30 30 30 31 31 31 31 32 33 33 32 31 30 30 29 29 30 30 30 30 29 29 30 31 31 32 33 33 33 33 33 33 32 33 32
27 27 28 28 28 29 29 29 30 30 30 30 31 32 32 32 31 32 32 31 31 31 30 30 30 30 30 31 31 30 31 32 32 33 34 35 35 35 35 34 34 34 34
28 28 28 28 29 29 29 29 30 30 30 30 30 30 30 30 30 30 30 31 31 31 31 31 30 30 30 30 31 31 31 32 33 33 33 34 35 35 36 37 36 36 36
28 28 29 29 29 30 30 29 29 29 29 28 28 28 28 29 28 28 29 29 30 30 31 32 31 31 31 31 32 32 32 33 34 34 34 35 35 35 36 36 36 37 36
28 29 29 29 29 29 29 28 28 28 28 28 27 27 27 27 27 27 27 28 29 29 30 30 30 30 30 30 31 32 32 32 33 34 35 35 35 35 36 36 36 37 37
29 29 29 29 29 29 28 28 28 28 28 28 27 27 27 26 27 27 27 27 28 29 29 29 30 30 30 30 31 31 32 32 33 34 34 35 35 35 36 36 36 37 38
28 28 28 28 27 27 27 27 28 28 28 28 28 27 27 27 28 28 27 27 28 28 28 29 29 30 30 31 31 32 32 32 33 34 34 34 35 35 36 36 36 36 36
28 28 27 27 26 26 26 26 26 27 27 27 27 27 27 27 28 28 28 28 28 27 28 29 29 30 31 31 31 32 33 33 34 34 34 34 34 35 35 35 35 35 35
28 28 27 27 27 27 27 26 26 26 26 26 26 27 28 28 27 27 27 28 28 27 27 28 29 30 31 31 31 32 32 32 32 32 33 34 34 34 35 35 35 35 36
27 27 27 27 27 26 26 26 26 26 26 26 26 26 26 27 27 27 27 27 27 27 27 28 28 29 29 30 30 30 30 30 31 30 31 32 33 32 33 34 34 35 35
25 24 25 25 25 25 26 26 26 26 26 26 26 25 25 26 26 26 26 26 26 26 26 27 27 28 28 28 28 29 29 29 29 30 30 31 31 31 31 31 32 32 32
24 23 23 23 23 23 24 24 24 24 24 24 24 23 23 23 23 23 23 23 24 24 24 25 25 26 26 26 26 26 27 27 27 27 27 27 27 27 28 28 29 29 29
21 21 21 21 21 21 21 21 22 21 21 21 21 20 20 20 20 20 20 20 21 21 22 22 22 23 23 23 23 23 24 23 23 23 23 22 23 24 24 25 25 26 26
19 19 19 19 19 19 19 19 19 19 18 18 18 17 17 17 17 17 17 17 18 19 19 19 19 18 19 19 19 19 19 19 19 19 20 20 21 21 21 22 22 22 23
17 17 17 17 17 17 17 16 16 15 15 15 15 15 15 14 14 14 14 14 15 16 16 15 16 16 16 16 16 16 15 15 16 16 17 18 18 19 19 19 19 19 20
15 15 15 15 15 14 13 12 12 12 12 12 12 12 11 11 11 11 11 12 12 12 12 12 12 12 12 13 12 12 12 12 13 14 14 15 15 16 17 17 17 18 18
13 13 13 13 12 12 11 10 9 9 9 8 8 8 8 8 8 8 8 9 9 9 9 9 9 9 9 9 10 10 10 10 11 11 11 12 13 14 15 16 17 17 18
12 11 11 11 10 9 8 8 8 7 6 5 5 5 5 5 5 5 6 5 5 6 6 6 6 6 6 7 8 8 8 9 9 10 11 12 13 14 14 16 17 18 18
Wind_Direction
280 281 281 281 281 278 277 278 278 275 273 272 272 272 273 273 269 268 264 261 261 262 262 260 258 260 260 258 258 258 256 255 256 255 255 256 256 256 256 257 259 261 263
279 283 283 280 280 279 277 277 278 276 275 273 272 270 270 271 268 266 264 262 262 261 260 259 260 259 258 259 256 254 255 255 255 255 255 256 257 257 257 257 259 261 263
279 280 281 279 278 278 278 277 276 275 273 273 273 271 270 269 268 265 263 262 263 261 259 258 259 258 257 257 254 253 254 255 256 256 256 258 258 258 259 259 259 261 263
280 281 280 279 277 275 276 275 274 274 273 274 273 271 270 268 267 265 262 260 260 259 259 258 258 258 257 257 254 254 253 254 256 258 257 257 258 259 260 260 260 261 263
281 281 281 280 279 278 278 277 277 275 275 274 272 270 269 267 266 265 263 262 260 259 259 258 257 257 256 256 255 255 254 255 257 259 258 257 257 259 261 261 262 263 264
282 284 283 282 281 280 280 279 277 274 274 274 272 269 267 266 265 264 263 263 262 260 259 259 258 257 257 256 255 254 254 255 258 257 257 256 257 258 260 263 263 263 265
283 284 285 283 282 281 280 279 279 276 275 274 272 270 267 267 264 263 262 262 261 260 259 260 258 258 258 258 257 256 254 254 256 256 256 257 258 258 260 262 263 263 264
283 284 284 283 282 282 281 280 279 278 276 275 273 271 268 266 265 263 260 260 262 261 259 258 258 258 258 258 258 257 256 255 254 256 258 258 260 260 262 263 263 264 264
284 285 284 283 283 283 283 282 281 280 279 277 274 271 270 268 266 263 261 259 261 260 258 258 259 258 257 257 257 257 257 256 256 257 257 258 259 261 261 262 263 263 262
285 286 285 284 283 283 282 282 282 282 280 279 276 272 270 268 268 265 262 259 259 260 261 260 260 259 257 257 257 257 256 256 257 258 259 260 260 261 262 263 264 263 263
285 285 285 284 284 283 283 283 283 282 280 279 277 274 270 267 267 265 263 262 262 262 263 262 262 261 259 257 256 256 256 257 256 258 259 261 262 263 264 265 265 264 263
285 285 285 286 285 285 284 284 282 281 280 278 277 275 271 268 267 266 264 264 264 263 263 262 262 261 257 257 257 256 256 257 258 260 261 262 263 265 266 266 266 266 265
285 286 286 286 286 285 283 282 281 280 279 277 276 274 271 270 267 268 266 264 264 264 263 261 262 262 260 260 259 257 257 258 259 260 261 262 264 264 265 266 266 265 267
285 285 285 285 285 283 282 280 279 278 278 276 275 272 270 268 267 268 267 265 265 264 263 262 261 261 261 261 260 260 260 260 260 261 262 263 263 264 266 267 266 266 267
286 286 286 285 284 282 280 278 278 278 277 276 274 271 268 267 267 267 266 264 265 263 261 262 262 261 261 262 262 262 262 261 262 262 263 264 263 266 266 266 267 268 267
286 285 285 284 284 282 279 278 279 278 277 276 273 272 270 268 267 267 265 264 264 263 260 261 261 262 262 262 263 264 264 264 264 264 264 265 266 266 267 267 267 268 269
287 286 284 283 283 281 280 280 280 279 277 276 273 270 269 268 267 267 265 264 264 263 262 263 263 262 261 262 263 264 265 265 263 264 265 266 266 266 266 267 268 269 270
289 287 285 284 283 281 281 280 279 278 276 275 275 273 271 270 268 267 265 263 263 264 264 263 263 263 263 263 264 265 266 265 265 265 266 266 268 269 270 269 269 269 269
291 289 287 285 285 284 283 282 280 278 276 276 277 276 274 271 269 267 265 263 262 262 262 262 261 263 264 265 266 266 266 266 267 267 267 268 269 271 272 272 270 269 269
293 291 289 289 289 288 286 284 282 280 279 279 278 278 277 275 273 269 266 265 263 262 263 262 262 264 265 266 267 267 266 267 267 268 268 269 270 271 273 274 272 270 270
296 295 293 293 291 290 289 286 285 281 280 279 279 279 279 277 275 271 268 266 263 264 264 264 264 265 265 266 267 268 268 268 269 270 270 269 271 271 272 274 273 272 271
300 299 298 298 297 295 292 289 286 284 282 281 280 280 278 276 277 274 271 268 265 266 266 265 264 265 267 267 267 270 271 270 272 272 272 271 272 273 274 275 274 276 275
304 305 304 305 304 302 297 294 291 290 287 285 282 281 277 276 275 272 270 268 269 270 267 266 265 265 266 267 268 269 272 275 276 274 273 272 272 273 273 275 274 278 280
312 311 310 310 311 310 307 302 299 296 292 290 286 284 279 275 272 269 264 265 269 269 266 265 264 264 265 267 269 270 274 277 280 281 279 279 279 278 278 278 278 280 282
319 319 319 319 320 321 321 319 316 309 306 299 291 285 283 281 278 270 265 267 267 265 264 264 264 265 264 266 267 273 278 280 282 283 283 285 285 283 283 283 282 285 286
323 322 323 329 333 337 338 339 339 337 337 332 318 308 301 299 296 283 270 263 256 262 258 256 259 261 264 270 274 277 282 286 288 289 289 291 289 288 289 290 290 289 289
Height
5868 5868 5867 5866 5866 5865 5865 5864 5864 5864 5864 5864 5864 5864 5864 5864 5864 5864 5865 5865 5866 5866 5867 5867 5867 5868 5869 5869 5870 5871 5872 5873 5874 5874 5875 5876 5876 5877 5877 5878 5879 5879 5879
5863 5863 5862 5861 5861 5860 5860 5859 5859 5859 5859 5859 5859 5859 5859 5859 5859 5859 5859 5860 5860 5861 5862 5862 5863 5863 5864 5865 5865 5866 5867 5868 5869 5870 5871 5871 5872 5873 5873 5874 5874 5875 5875
5858 5857 5857 5856 5856 5855 5854 5854 5854 5854 5854 5854 5853 5853 5853 5853 5853 5853 5854 5854 5855 5855 5856 5857 5858 5858 5859 5859 5860 5861 5862 5863 5864 5865 5866 5866 5867 5868 5869 5869 5870 5870 5871
5853 5852 5851 5850 5850 5849 5849 5848 5848 5848 5847 5847 5847 5847 5847 5847 5847 5847 5847 5848 5849 5849 5850 5851 5852 5853 5853 5854 5855 5856 5857 5858 5858 5859 5860 5861 5862 5863 5863 5864 5864 5865 5865
5847 5846 5845 5844 5844 5843 5843 5842 5841 5841 5841 5841 5841 5840 5840 5841 5841 5841 5841 5842 5842 5843 5844 5845 5846 5846 5847 5848 5849 5850 5851 5852 5853 5853 5854 5855 5856 5857 5857 5858 5859 5859 5859
5841 5840 5839 5838 5838 5837 5836 5836 5835 5835 5834 5834 5834 5833 5833 5833 5834 5834 5834 5835 5836 5836 5837 5838 5839 5840 5841 5842 5843 5844 5845 5846 5846 5847 5848 5849 5850 5850 5851 5852 5852 5853 5853
5835 5834 5833 5832 5831 5830 5829 5828 5828 5827 5827 5826 5826 5826 5826 5826 5826 5827 5827 5828 5828 5829 5830 5831 5832 5833 5834 5835 5836 5837 5838 5839 5840 5840 5841 5842 5843 5844 5844 5845 5845 5846 5846
5829 5828 5826 5825 5824 5823 5822 5821 5820 5819 5819 5818 5818 5818 5818 5819 5818 5819 5819 5820 5821 5821 5823 5824 5825 5826 5827 5828 5829 5830 5831 5832 5832 5833 5834 5835 5836 5836 5837 5837 5838 5838 5838
5822 5821 5819 5818 5817 5816 5815 5814 5812 5812 5811 5810 5810 5810 5810 5810 5811 5811 5811 5812 5813 5814 5815 5816 5817 5818 5819 5821 5822 5823 5823 5824 5825 5826 5826 5827 5828 5829 5829 5829 5830 5830 5831
5815 5814 5812 5811 5809 5808 5807 5806 5805 5804 5803 5803 5802 5801 5802 5802 5802 5803 5803 5804 5805 5806 5807 5808 5809 5810 5811 5813 5814 5815 5816 5817 5818 5818 5818 5819 5820 5820 5821 5821 5822 5822 5822
5808 5806 5805 5803 5802 5800 5799 5798 5797 5796 5795 5795 5794 5794 5793 5794 5794 5795 5795 5796 5796 5797 5798 5800 5801 5802 5803 5804 5806 5807 5808 5809 5810 5810 5810 5811 5812 5812 5812 5812 5813 5813 5813
5800 5799 5797 5796 5794 5793 5792 5790 5789 5788 5788 5787 5787 5786 5786 5786 5786 5787 5787 5788 5788 5789 5790 5791 5792 5794 5795 5796 5797 5799 5800 5801 5802 5802 5802 5802 5803 5803 5803 5804 5804 5804 5804
5793 5791 5790 5788 5786 5785 5783 5782 5782 5781 5780 5780 5779 5779 5778 5779 5779 5779 5780 5780 5781 5781 5782 5783 5784 5786 5787 5788 5789 5790 5792 5793 5793 5794 5794 5794 5794 5794 5795 5795 5795 5795 5795
5785 5783 5782 5780 5779 5777 5776 5775 5774 5773 5773 5772 5772 5771 5771 5771 5771 5772 5773 5773 5773 5774 5774 5775 5776 5778 5779 5780 5781 5782 5783 5784 5785 5785 5786 5786 5786 5786 5786 5786 5786 5786 5786
5777 5775 5774 5772 5771 5769 5768 5767 5767 5766 5765 5764 5764 5764 5763 5763 5764 5764 5765 5765 5766 5766 5766 5767 5768 5770 5771 5772 5773 5774 5775 5776 5776 5777 5777 5777 5777 5777 5777 5777 5777 5777 5777
5769 5767 5766 5764 5763 5762 5761 5760 5759 5758 5757 5757 5756 5756 5756 5756 5756 5756 5757 5757 5758 5759 5759 5759 5761 5762 5763 5764 5765 5766 5767 5767 5768 5768 5768 5768 5768 5768 5768 5768 5768 5768 5768
5761 5759 5758 5757 5755 5754 5753 5752 5751 5751 5750 5749 5748 5748 5748 5748 5748 5749 5749 5749 5750 5751 5751 5752 5753 5754 5755 5756 5757 5757 5758 5758 5759 5759 5760 5760 5760 5759 5759 5759 5759 5759 5759
5753 5751 5750 5749 5747 5746 5745 5744 5744 5743 5742 5741 5741 5740 5740 5740 5740 5740 5741 5741 5742 5743 5744 5744 5745 5746 5747 5748 5749 5749 5750 5750 5751 5751 5751 5751 5751 5751 5751 5751 5750 5750 5750
5745 5744 5742 5741 5740 5739 5738 5737 5736 5735 5735 5734 5733 5733 5732 5732 5732 5733 5733 5733 5734 5735 5736 5737 5738 5739 5739 5740 5741 5742 5742 5742 5743 5743 5743 5743 5743 5743 5743 5743 5742 5742 5742
5739 5737 5736 5735 5733 5732 5730 5729 5728 5728 5727 5726 5726 5726 5725 5725 5725 5725 5725 5726 5727 5728 5729 5729 5731 5732 5733 5733 5734 5734 5735 5735 5735 5735 5735 5735 5735 5735 5735 5735 5735 5734 5734
5733 5731 5730 5728 5727 5726 5724 5723 5722 5721 5720 5720 5719 5719 5719 5719 5719 5719 5719 5719 5721 5722 5722 5723 5724 5725 5726 5727 5728 5728 5728 5728 5728 5728 5728 5729 5729 5729 5728 5728 5727 5727 5727
5729 5727 5725 5723 5722 5720 5718 5717 5716 5715 5714 5714 5713 5713 5713 5713 5713 5713 5713 5714 5715 5716 5717 5718 5718 5719 5720 5721 5722 5722 5722 5723 5723 5723 5723 5722 5722 5722 5722 5722 5721 5720 5720
5724 5722 5721 5719 5717 5715 5713 5712 5711 5710 5709 5709 5708 5708 5708 5708 5708 5709 5709 5709 5710 5711 5712 5713 5714 5715 5716 5716 5717 5718 5718 5718 5718 5718 5717 5717 5717 5716 5716 5716 5715 5715 5714
5721 5719 5717 5715 5713 5711 5710 5708 5707 5706 5705 5705 5704 5704 5704 5704 5704 5705 5705 5706 5706 5707 5708 5709 5710 5711 5712 5712 5713 5713 5713 5714 5714 5713 5713 5713 5712 5712 5711 5711 5710 5710 5709
5719 5717 5715 5713 5711 5709 5708 5706 5705 5704 5703 5702 5701 5701 5701 5702 5702 5702 5703 5703 5703 5704 5705 5706 5707 5708 5708 5709 5710 5710 5710 5710 5710 5710 5710 5709 5709 5708 5707 5707 5706 5705 5705
5717 5715 5713 5712 5710 5708 5706 5705 5704 5702 5701 5700 5700 5700 5700 5700 5700 5700 5700 5701 5702 5702 5703 5704 5705 5705 5706 5707 5707 5708 5708 5708 5708 5707 5707 5706 5705 5704 5704 5703 5702 5701 5700